Location: Castrojimeno
(41.3966°N, 3.8473°W)
Time: 07:52:19
(UTC+00:00)

Cosmos 1805 - Pass Details

Date: 15 May 2026
Orbit: 411 x 414 km, 82.5° (Epoch: 5 June)

Event Time Altitude Azimuth Distance (km) Brightness Sun altitude
Rises 22:05:57 0° 346° (NNW) 2,369 7.8 -22.9°
Reaches altitude 10° 22:08:01 10° 341° (NNW) 1,499 6.6 -23.1°
Enters shadow 22:10:35 41° 302° (WNW) 613 3.9 -23.4°
